Waco, TX

12:03 AM CDT on July 22, 2017 (GMT -0500)
Waco Regional

Weather History for KACT - December, 2012

Change the Weather History Date:

Thursday, December 27, 2012

  Actual Average Record
Temperature  
Mean Temperature 35 °F 47 °F  
Max Temperature 45 °F 57 °F 85 °F (2005)
Min Temperature 25 °F 36 °F 23 °F (2009)
Degree Days  
Heating Degree Days 30 18  
Month to date heating degree days 313 448  
Since 1 July heating degree days 639 776  
Cooling Degree Days 0 0  
Month to date cooling degree days 29 0  
Year to date cooling degree days 3241 2792  
Moisture  
Dew Point 34 °F    
Average Humidity 79    
Maximum Humidity 100    
Minimum Humidity 58    
Precipitation  
Precipitation T in 0.09 in 2.24 in (2015)
Month to date precipitation 0.64 2.43  
Year to date precipitation 32.17 34.37  
Snow  
Snow 0.00 in 0.00 in T in (2000)
Month to date snowfall 0.0 0.0  
Since 1 July snowfall 0.0 0.1  
Snow Depth 0.00 in    
Sea Level Pressure  
Sea Level Pressure 29.97 in    
Wind  
Wind Speed 5 mph (ESE)    
Max Wind Speed 13 mph    
Max Gust Speed 15 mph    
Visibility 5 miles    
Events Rain    
T = Trace of Precipitation, MM = Missing Value Source: NWS Daily Summary

Daily Weather History Graph

Daily Weather History Graph

Search for Another Location

Airport or City:

Trip Planner

Search our weather history database for the weather conditions in past years. The results will help you decide how hot, cold, wet, or windy it might be!

Date:

Astronomy

Dec. 27, 2012 Rise Set
Actual Time 7:27 AM CST 5:33 PM CST
Civil Twilight 7:00 AM CST 6:00 PM CST
Nautical Twilight 6:30 AM CST 6:30 PM CST
Astronomical Twilight 6:00 AM CST 7:00 PM CST
Moon 5:15 PM CST (12/27) 6:40 AM CST (12/27)
Length of Visible Light 10h 59m
Length of Day
10h 06m
Full, 100% of the Moon is Illuminated
Dec 27
Full
Dec 28
Full
Jan 4
Last Quarter
Jan 11
New
Jan 18
First Quarter

Hourly Weather History & Observations

Time (CST) Temp. Windchill Dew Point Humidity Pressure Visibility Wind Dir Wind Speed Gust Speed Precip Events Conditions
12:51 AM 27.0 °F 23.0 °F 23.0 °F 85% 30.13 in 7.0 mi East 3.5 mph - N/A   Clear
1:51 AM 27.0 °F 23.0 °F 21.9 °F 81% 30.13 in 8.0 mi East 3.5 mph - N/A   Clear
2:51 AM 26.1 °F 21.9 °F 21.9 °F 84% 30.11 in 7.0 mi East 3.5 mph - N/A   Clear
3:51 AM 26.1 °F 20.5 °F 21.9 °F 84% 30.09 in 7.0 mi ESE 4.6 mph - N/A   Clear
4:51 AM 26.1 °F 18.4 °F 23.0 °F 88% 30.06 in 7.0 mi SE 6.9 mph - N/A   Clear
5:51 AM 27.0 °F 19.5 °F 23.0 °F 85% 30.06 in 6.0 mi SE 6.9 mph - N/A   Clear
6:51 AM 28.0 °F 20.0 °F 23.0 °F 81% 30.06 in 7.0 mi SE 8.1 mph - N/A   Clear
7:51 AM 28.0 °F 22.8 °F 23.0 °F 81% 30.06 in 6.0 mi East 4.6 mph - N/A   Haze
8:51 AM 28.9 °F 23.9 °F 24.1 °F 82% 30.06 in 5.0 mi East 4.6 mph - N/A   Haze
9:51 AM 33.1 °F 30.0 °F 27.0 °F 78% 30.08 in 7.0 mi ESE 3.5 mph - N/A   Clear
10:47 AM 37.4 °F 32.8 °F 28.4 °F 70% 30.06 in 8.0 mi ESE 5.8 mph - N/A   Mostly Cloudy
10:51 AM 37.9 °F 34.4 °F 28.9 °F 70% 30.07 in 8.0 mi ESE 4.6 mph - N/A   Mostly Cloudy
11:03 AM 39.2 °F 34.2 °F 28.4 °F 65% 30.05 in 9.0 mi ESE 6.9 mph - N/A   Partly Cloudy
11:51 AM 43.0 °F 40.3 °F 30.0 °F 60% 30.01 in 9.0 mi East 4.6 mph - N/A   Partly Cloudy
12:27 PM 44.6 °F - 30.2 °F 57% 30.00 in 9.0 mi Calm Calm - N/A   Mostly Cloudy
12:51 PM 44.1 °F 42.5 °F 30.9 °F 60% 29.99 in 9.0 mi Variable 3.5 mph - N/A   Overcast
1:51 PM 45.0 °F 39.7 °F 33.1 °F 63% 29.95 in 8.0 mi SE 10.4 mph - N/A   Overcast
2:51 PM 44.1 °F 40.8 °F 36.0 °F 73% 29.94 in 5.0 mi SE 5.8 mph - N/A   Haze
3:20 PM 42.8 °F 38.6 °F 37.4 °F 81% 29.94 in 2.5 mi South 6.9 mph - 0.00 in   Haze
3:51 PM 42.1 °F 37.7 °F 39.0 °F 89% 29.94 in 1.2 mi SSE 6.9 mph - 0.00 in   Overcast
4:22 PM 42.8 °F 39.3 °F 39.2 °F 87% 29.92 in 1.2 mi SSE 5.8 mph - 0.00 in Rain Light Rain
4:48 PM 42.8 °F 40.1 °F 39.2 °F 87% 29.92 in 2.0 mi SSE 4.6 mph - 0.00 in   Overcast
4:51 PM 42.1 °F 40.2 °F 39.0 °F 89% 29.93 in 2.0 mi SSE 3.5 mph - 0.00 in   Overcast
5:51 PM 43.0 °F 40.3 °F 39.0 °F 86% 29.91 in 4.0 mi SE 4.6 mph - N/A   Overcast
6:51 PM 42.8 °F 39.3 °F 39.2 °F 87% 29.90 in 4.0 mi SE 5.8 mph - N/A   Overcast
6:58 PM 44.6 °F 40.2 °F 39.2 °F 81% 29.91 in 4.0 mi SE 8.1 mph - N/A   Overcast
7:25 PM 42.8 °F 41.1 °F 41.0 °F 93% 29.91 in 2.0 mi ESE 3.5 mph - N/A   Overcast
7:51 PM 43.0 °F 41.3 °F 41.0 °F 93% 29.91 in 2.0 mi ESE 3.5 mph - N/A   Overcast
8:07 PM 42.8 °F 41.1 °F 41.0 °F 93% 29.91 in 5.0 mi East 3.5 mph - N/A   Overcast
8:51 PM 43.0 °F 37.7 °F 41.0 °F 93% 29.89 in 5.0 mi ESE 9.2 mph - N/A   Overcast
9:42 PM 42.8 °F - 42.8 °F 100% 29.90 in 2.5 mi Calm Calm - N/A   Overcast
9:51 PM 43.0 °F 41.3 °F 42.1 °F 97% 29.90 in 2.5 mi ESE 3.5 mph - N/A   Overcast
10:11 PM 42.8 °F 41.1 °F 41.0 °F 93% 29.90 in 3.0 mi East 3.5 mph - N/A   Overcast
10:49 PM 42.8 °F 39.3 °F 41.0 °F 93% 29.89 in 2.5 mi East 5.8 mph - N/A   Overcast
10:51 PM 44.1 °F 40.8 °F 41.0 °F 89% 29.89 in 2.5 mi East 5.8 mph - N/A   Overcast
11:16 PM 42.8 °F 41.1 °F 42.8 °F 100% 29.88 in 1.8 mi East 3.5 mph - N/A   Overcast
11:31 PM 42.8 °F 41.1 °F 42.8 °F 100% 29.87 in 1.5 mi East 3.5 mph - N/A   Overcast
11:51 PM 44.1 °F 42.5 °F 42.1 °F 93% 29.88 in 2.0 mi ESE 3.5 mph - N/A   Overcast